STARLINK-11157, 60122

Orbit data source: Space-Track

STARLINK-11157, 60122 is a payload satellite owned by SpaceX/Seattle (US) in LEO that was launched on Mon, 24 Jun 2024 UTC via an FALCON 9 launch vehicle from the Air Force Western Test Range (AFWTR). Payload-class satellites include a variety of spacecraft equipped with specific instruments for various scientific and technological missions. These include communications satellites like Starlink; space stations such as the ISS; scientific satellites like the Hubble; Earth observation satellites from companies like Planet Labs, Umbra, and HawkEye 360; GPS; miniature CubeSats for education and research; and military/defense satellites.

Loading next visibility...
Identifier
60122, 2024-118K
Orbit
LEO
Last TLE update
7 hours ago
Origin
Manufacturer
SpaceX/Seattle
Mission
Operational Commercial Communications
Bus & Motor
STARLINK V2M, Unknown motor
Mass
730 kg wet, ~700 kg dry
Launch date (UTC)
2024-06-24 (1 year ago)
Launch vehicle
FALCON 9
Launch site
Air Force Western Test Range (AFWTR)
Object type
Payload
Rocket body
Debris
Shape & HBR
Box + 2 Pan, 29 m
Radar Cross Section
33.884 m², Large (>1 m²)

Expand to show TLE details & history

TLE from 7 hours ago
0 STARLINK-11157
1 60122U 24118K   25182.81774427 -.00001960  00000-0 -11335-4 0  9990
2 60122  53.1589  17.7759 0000773  78.4266 281.6839 15.69702843 59376
Epoch: 2025-07-01T19:37Z
TLE epoch observation values (Epoch: 2025-07-01T19:37:33.104Z)
Latitude
-0.00002°
Longitude
163.2802°
Altitude
360.557 km
Speed
7.694 km/s
True Right ascension
01h 11m 06s
True Declination
0° 00' 00"
Sunlit
Object was in daylight at epoch
Visualization orbit readout
Latitude
-31.88872°
Longitude
9.44673°
Altitude
370.038 km
Speed
7.687 km/s
Apparent Right ascension
17h 32m 37s
Apparent Declination
-81° 25' 16"
Sunlit
Object is in full shadow
Visualization observer readout
Local Sidereal Time
14:21:39
Azimuth
172.358° S
Elevation
-33.886°
Doppler factor
1
Orbital elements
Apogee altitude
360.529 km
Perigee altitude
359.487 km
Semi-major axis
6,738.145 km
Eccentricity
0.00008
Inclination
53.1589°
RAAN
17.7759°
Arg. of periapsis
78.4266°
True anomaly
Unknown
Mean anomaly
281.6839°
Eccentric anomaly
Unknown
Mean motion
3.92403 °/min
Orbital period
91.74 mins
BSTAR
-0.000011335
Loading maneuver chart data...
Loading SW <> Apogee altitude chart data...
Loading historical data...
Loading historical data...
Loading historical data...
Loading historical data...
Loading historical data...
Loading historical data...
Loading historical data...

STARLINK-11157 Visibility forecast

Observer location: undefined°, undefined°

Span
Click to sort rows by Start time (UTC) header in descending order
Start Az.
Max El. time (UTC)
Max El. Az.
Max El.
End time (UTC)
End Az.
5 mins2025-07-02 15:40:32.671Z226.03° WSW2025-07-02 15:42:32.671Z210.197° SW42.809°2025-07-02 15:45:32.671Z51.636° ENE
4 mins2025-07-02 22:05:32.671Z324.964° NNW2025-07-02 22:07:32.671Z34.395° NE37.027°2025-07-02 22:09:32.671Z107.792° ESE
|